Powrót do katalogu

STARLINK-5148

AktywnyŁącznośćVLEO
NORAD 53978·PAYLOAD·🇺🇸 United States

Wystrzelony Oct 5, 2022 z Vandenberg Space Force Base

Loading…

Następne Przeloty (najbliższe 24 godziny)

TLE

ŚwieżeSource: CelesTrak SupGP

Epoka: Sep 15, 2026, 01:42 UTC

1 53978C 22125Q   26258.07131944  .00074722  00000+0  28138-2 0  2589
2 53978  53.1606  86.9013 0001144  95.4577 238.0953 15.26531053    11

Śledź STARLINK-5148 w czasie rzeczywistym z AllMySat

Download on the App Store